Regional Weather Roundup
Issued by NWS

Home | Current Version | Previous Version | Graphics & Text | Print | Product List | Glossary On
Versions: 1 2 3 4 5 6 7 8 9 10 11 12 13 14 15 16 17 18 19 20 21 22 23 24 25 26 27 28 29 30 31 32 33 34 35 36 37 38 39 40 41 42 43 44 45 46 47 48 49 50
945
ASUS43 KTOP 270759
RWRKS

WEATHER ROUNDUP FOR KANSAS
NATIONAL WEATHER SERVICE GOODLAND KS
300 AM CDT SAT MAY 27 2017

NOTE:  "FAIR" INDICATES FEW OR NO CLOUDS BELOW 12,000 FEET WITH NO
SIGNIFICANT WEATHER AND/OR OBSTRUCTIONS TO VISIBILITY.

KSZ001>006-013>018-027>032-041>047-270900-
NORTHWEST KANSAS

CITY           SKY/WX    TMP DP  RH WIND       PRES   REMARKS
GOODLAND       CLOUDY    53  52  96 E10       29.88S THUNDER
HAYS           TSTM      58  53  84 N21G32    29.85R
HILL CITY      TSTM      60  56  86 N18G33    29.88F
RUSSELL        CLOUDY    62  59  90 NE8       29.80S
$$

KSZ061>065-074>080-084>089-270900-
SOUTHWEST KANSAS

CITY           SKY/WX    TMP DP  RH WIND       PRES   REMARKS
DODGE CITY     CLOUDY    64  59  83 SE15      29.77F
ELKHART          N/A     57  47  69 MISG        N/A
GARDEN CITY    CLEAR     64  56  75 N17       29.84R HAZE
GREAT BEND     PTCLDY    66  61  84 E8        29.76F
LIBERAL        PTCLDY    64  58  80 SE10      29.78F
$$

KSZ066>073-081>083-090>101-270900-
SOUTHEAST KANSAS

CITY           SKY/WX    TMP DP  RH WIND       PRES   REMARKS
CHANUTE        CLEAR     64  63  96 CALM      29.80F
COFFEYVILLE    PTCLDY    68  68 100 NE5       29.78F
HUTCHINSON     CLEAR     66  61  84 E9        29.76F
MEDICINE LODGE   N/A     67  61  81 SE7       29.76S
NEWTON         CLEAR     65  62  90 E7        29.80F
PARSONS        PTCLDY    64  62  93 CALM      29.79F
WICHITA INTL   CLEAR     69  63  81 E13       29.76F
WICHITA JABRA  CLEAR     63  61  93 E5        29.78F
WINFIELD       CLEAR     70  63  78 E8        29.76F
$$

KSZ007>012-019>026-033>040-048>060-102>105-270900-
NORTHEAST KANSAS

CITY           SKY/WX    TMP DP  RH WIND       PRES   REMARKS
CONCORDIA      CLOUDY    61  56  83 E3        29.83F
EMPORIA        CLEAR     63  62  97 E5        29.81F
LAWRENCE       CLEAR     64  63  96 CALM      29.82F
MANHATTAN      CLOUDY    64  60  87 N3        29.82F
OLATHE IND     CLEAR     66  63  90 E5        29.83F
OLATHE EXE     CLEAR     67  66  97 CALM      29.83F
SALINA         PTCLDY    69  61  75 E6        29.79F
TOPEKA BILLARD CLEAR     64  64 100 CALM      29.82S
TOPEKA FORBES  CLEAR     66  63  90 CALM      29.83S
$$




USA.gov is the U.S. government's official web portal to all federal, state and local government web resources and services.